Location: Ar Ranvel
(48.3000°N, 4.8833°W)
Time: 09:36:44
(UTC+00:00)

Cosmos 2219 Rocket - Pass Details

Date: 16 June 2021
Orbit: 829 x 845 km, 71.0° (Epoch: 03 August)

Event Time Altitude Azimuth Distance (km) Brightness Sun altitude
Exits shadow 23:06:16 13° 210° (SSW) 2,264 4.0 -16.4°
Maximum altitude 23:11:24 82° 298° (WNW) 859 2.2 -16.7°
Drops below altitude 10° 23:17:06 10° 27° (NNE) 2,474 5.3 -16.9°
Sets 23:19:34 0° 28° (NNE) 3,411 6.1 -17.0°
